TimeEST,TemperatureF,Dew PointF,Humidity,Sea Level PressureIn,VisibilityMPH,Wind Direction,Wind SpeedMPH,Gust SpeedMPH,PrecipitationIn,Events,Conditions,WindDirDegrees,DateUTC
12:56 AM,24.1,5.0,44,30.51,10.0,Calm,Calm,-,N/A,,Scattered Clouds,0,2013-02-08 05:56:00
1:56 AM,21.9,8.1,55,30.49,10.0,Calm,Calm,-,N/A,,Mostly Cloudy,0,2013-02-08 06:56:00
2:31 AM,23.0,12.2,63,30.41,10.0,NE,4.6,-,N/A,,Scattered Clouds,50,2013-02-08 07:31:00
2:56 AM,23.0,15.1,72,30.45,10.0,NE,5.8,-,N/A,,Clear,40,2013-02-08 07:56:00
3:56 AM,24.1,21.0,88,30.42,10.0,NE,3.5,-,N/A,,Overcast,50,2013-02-08 08:56:00
4:56 AM,25.0,23.0,92,30.40,10.0,NE,4.6,-,N/A,,Overcast,50,2013-02-08 09:56:00
5:56 AM,26.1,25.0,96,30.39,8.0,NNE,3.5,-,0.00,,Overcast,20,2013-02-08 10:56:00
6:06 AM,26.6,24.8,93,30.34,10.0,North,4.6,-,0.00,Snow,Light Snow,10,2013-02-08 11:06:00
6:22 AM,26.6,24.8,93,30.34,9.0,NNW,5.8,-,N/A,Snow,Light Snow,340,2013-02-08 11:22:00
6:35 AM,24.8,23.0,93,30.33,9.0,North,8.1,-,0.00,Snow,Light Snow,350,2013-02-08 11:35:00
6:56 AM,25.0,21.9,88,30.38,10.0,NNW,6.9,-,0.00,,Overcast,340,2013-02-08 11:56:00
7:56 AM,30.9,25.0,79,30.36,10.0,East,10.4,-,N/A,,Overcast,90,2013-02-08 12:56:00
8:56 AM,30.9,25.0,79,30.34,10.0,East,11.5,-,N/A,,Overcast,80,2013-02-08 13:56:00
9:50 AM,32.0,26.6,80,30.27,8.0,ENE,12.7,-,0.00,Snow,Light Snow,70,2013-02-08 14:50:00
9:56 AM,32.0,27.0,82,30.32,6.0,East,10.4,-,0.00,Snow,Light Snow,80,2013-02-08 14:56:00
10:05 AM,32.0,28.4,87,30.27,2.0,East,11.5,-,0.00,Snow,Light Snow,80,2013-02-08 15:05:00
10:20 AM,30.2,30.2,100,30.26,0.8,East,12.7,-,0.00,Snow,Light Snow,90,2013-02-08 15:20:00
10:26 AM,30.2,30.2,100,30.26,0.8,East,11.5,-,0.00,Snow,Light Snow,80,2013-02-08 15:26:00
10:56 AM,30.9,30.9,100,30.29,0.8,ENE,12.7,-,0.01,Snow,Light Snow,70,2013-02-08 15:56:00
11:32 AM,28.4,28.4,100,30.21,0.5,North,9.2,-,0.01,Fog-Snow,Light Snow,10,2013-02-08 16:32:00
11:56 AM,25.0,24.1,96,30.23,0.5,North,9.2,-,0.01,Fog-Snow,Light Snow,10,2013-02-08 16:56:00
12:03 PM,24.8,24.8,100,30.18,0.8,North,10.4,-,0.00,Snow,Light Snow,360,2013-02-08 17:03:00
12:44 PM,24.8,24.8,100,30.14,0.2,North,6.9,-,0.02,Fog-Snow,Snow,10,2013-02-08 17:44:00
12:54 PM,24.8,24.8,100,30.13,0.5,NNE,12.7,-,0.02,Fog-Snow,Snow,20,2013-02-08 17:54:00
12:56 PM,24.1,24.1,100,30.19,0.5,NNE,12.7,-,0.02,Fog-Snow,Snow,20,2013-02-08 17:56:00
1:56 PM,23.0,21.9,96,30.15,0.2,North,13.8,-,0.02,Fog-Snow,Snow,10,2013-02-08 18:56:00
2:43 PM,23.0,21.2,93,30.05,0.5,North,12.7,-,0.01,Fog-Snow,Snow,10,2013-02-08 19:43:00
2:51 PM,23.0,21.2,93,30.05,0.5,North,10.4,-,0.01,Fog-Snow,Snow,10,2013-02-08 19:51:00
2:56 PM,23.0,21.9,96,30.11,0.5,North,10.4,-,0.01,Fog-Snow,Snow,10,2013-02-08 19:56:00
3:28 PM,24.8,23.0,93,30.02,0.2,North,11.5,-,0.02,Fog-Snow,Snow,360,2013-02-08 20:28:00
3:56 PM,28.9,28.9,100,30.04,0.5,NE,20.7,26.5,0.03,Fog-Snow,Snow,40,2013-02-08 20:56:00
4:56 PM,30.0,30.0,100,29.98,0.5,NE,13.8,25.3,0.02,Fog-Snow,Snow,40,2013-02-08 21:56:00
5:56 PM,30.0,28.9,96,29.95,0.5,NE,20.7,26.5,0.03,Fog-Snow,Snow,40,2013-02-08 22:56:00
6:53 PM,24.8,23.0,93,29.86,0.5,North,15.0,25.3,0.04,Fog-Snow,Snow,360,2013-02-08 23:53:00
6:56 PM,23.0,21.9,96,29.91,0.5,North,16.1,25.3,0.04,Fog-Snow,Snow,350,2013-02-08 23:56:00
7:05 PM,21.2,21.2,100,29.85,0.2,North,15.0,-,0.01,Fog-Snow,Heavy Snow,360,2013-02-09 00:05:00
7:47 PM,21.2,21.2,100,29.81,0.2,NNE,20.7,27.6,0.03,Fog,Light Freezing Fog,20,2013-02-09 00:47:00
7:56 PM,21.0,21.0,100,29.86,0.2,NNE,21.9,32.2,0.04,Fog,Light Freezing Fog,20,2013-02-09 00:56:00
8:11 PM,21.2,21.2,100,29.79,0.2,North,19.6,29.9,0.01,Fog,Light Freezing Fog,10,2013-02-09 01:11:00
8:21 PM,19.4,19.4,100,29.78,0.2,North,20.7,32.2,0.01,Fog,Light Freezing Fog,10,2013-02-09 01:21:00
8:31 PM,19.4,19.4,100,29.78,0.2,North,19.6,29.9,0.02,Fog,Light Freezing Fog,10,2013-02-09 01:31:00
8:56 PM,19.9,19.0,96,29.82,0.2,North,20.7,63.3,0.03,Fog,Light Freezing Fog,10,2013-02-09 01:56:00
9:14 PM,19.4,19.4,100,29.75,0.2,North,18.4,74.8,0.01,Fog,Light Freezing Fog,10,2013-02-09 02:14:00
9:25 PM,19.4,17.6,93,29.73,0.2,North,19.6,40.3,0.02,Fog,Light Freezing Fog,360,2013-02-09 02:25:00
9:34 PM,19.4,17.6,93,29.74,0.5,North,16.1,51.8,0.02,Fog,Light Freezing Fog,10,2013-02-09 02:34:00
9:56 PM,19.0,17.1,92,29.78,0.5,North,21.9,31.1,0.02,Fog,Light Freezing Fog,10,2013-02-09 02:56:00
10:11 PM,17.6,17.6,100,29.68,0.5,NNE,21.9,34.5,N/A,Fog,Light Freezing Fog,20,2013-02-09 03:11:00
10:44 PM,17.6,15.8,93,29.68,0.5,North,20.7,31.1,0.01,Fog,Light Freezing Fog,10,2013-02-09 03:44:00
10:56 PM,17.1,17.1,100,29.71,0.5,North,18.4,34.5,0.01,Fog,Light Freezing Fog,360,2013-02-09 03:56:00
11:10 PM,17.6,15.8,93,29.64,0.5,NNE,23.0,35.7,N/A,Fog,Light Freezing Fog,20,2013-02-09 04:10:00
11:37 PM,17.6,17.6,100,29.63,0.2,North,21.9,33.4,0.01,Fog,Light Freezing Fog,360,2013-02-09 04:37:00
11:46 PM,17.6,15.8,93,29.63,0.2,North,15.0,35.7,0.01,Fog,Light Freezing Fog,360,2013-02-09 04:46:00
11:56 PM,17.1,16.0,96,29.67,0.2,North,17.3,39.1,0.01,Fog,Light Freezing Fog,350,2013-02-09 04:56:00